ATLAS 5 CENTAUR DEB, 43985

Orbit data source: Space-Track

ATLAS 5 CENTAUR DEB, 43985 is space debris in HEO originally from a launch on Wed, 17 Sep 2014 UTC launched from the Air Force Eastern Test Range (AFETR). Debris objects in space refer to the collection of defunct objects orbiting the Earth. Examples of debris include non-operational satellites, rocket bodies, and fragments generated from explosions, collisions, or faulty payload assembly.

Loading next visibility...
ATLAS 5 CENTAUR DEB details
Identifier
43985, 2014-055AQ
Orbit
HEO
Last TLE update23 hours ago
Origin
Flag of USULA (US)
ManufacturerUnknown
MissionSpacecraft
Bus & MotorUnknown
MassUnknown
Launch date (UTC)
2014-09-17 (10 years ago)
Launch vehicleUnknown
Launch site
Air Force Eastern Test Range (AFETR)
Object type
Payload
Rocket body
Debris
Shape & HBRUnknown
Radar Cross SectionSmall (<0.1 m²)

Expand to show TLE details & history

TLE from 23 hours ago
0 ATLAS 5 CENTAUR DEB
1 43985U 14055AQ  24348.19975036 -.00000052  00000-0  00000-0 0  9993
2 43985  19.7437 223.6523 4823060  22.0001 353.2917  1.76854373  2290
Epoch: 2024-12-13T04:47Z
Definitive object data (Epoch: 2024-12-13T04:47:38.431Z)
Latitude
Longitude69.43247°
Altitude8,906.522 km
Speed6.193 km/s
True Right ascension14h 54m 50s
True Declination0° 00' 00"
Sunlit
Object was in daylight at TLE epoch
Visualization TLE readout
Latitude-15.08971°
Longitude-62.02968°
Altitude32,194.02 km
Speed2.621 km/s
Apparent Right ascension06h 35m 44s
Apparent Declination-22° 06' 31"
Sunlit
Object is in daylight
Visualization observer readout
Local Sidereal Time02:26:32
Azimuth124.558° SE
Elevation5.095°
Doppler factor1
Orbital elements
Apogee altitude36,439.665 km
Perigee altitude8,575.941 km
Semi-major axis28,885.94 km
Eccentricity0.482306
Inclination19.7437°
RAAN223.6523°
Arg. of periapsis22.0001°
True anomaly338.41044°
Mean anomaly353.2917°
Eccentric anomaly347.14225°
Mean motion0.44209 °/min
BSTARUnknown
Orbital period814.31 mins
Loading maneuver chart data...

ATLAS 5 CENTAUR DEB Visibility forecast

Observer location: undefined°, undefined

Span
Click to sort rows by Start time (UTC) header in descending order
Start Az.
Max El. time (UTC)
Max El. Az.
Max El.
End time (UTC)
End Az.
361 mins2024-12-14 21:52:44.726Z252.804° W2024-12-14 22:49:44.726Z178.351° S41.039°2024-12-15 03:53:44.726Z152.449° SSE
|